Regional Weather Roundup
Issued by NWS Bismarck, ND

Home | Current Version | Previous Version | Text Only | Print | Product List | Glossary On
Versions: 1 2 3 4 5 6 7 8 9 10 11 12 13 14 15 16 17 18 19 20 21 22 23 24 25 26 27 28 29 30 31 32 33 34 35 36 37 38 39 40 41 42 43 44 45 46 47 48 49 50
000
ASUS43 KBIS 280810
RWRBIS

NWR BROADCAST TEXT
NATIONAL WEATHER SERVICE BISMARCK ND
300 AM CDT SAT MAY 28 2016

NOTE: "FAIR" INDICATES FEW OR NO CLOUDS BELOW 12,000 FEET WITH NO
SIGNIFICANT WEATHER AND/OR OBSTRUCTIONS TO VISIBILITY.


CITY           SKY/WX    TMP DP  RH WIND       PRES   REMARKS
WILLISTON      CLOUDY    57  53  86 E9        29.88R
MINOT          CLOUDY    56  54  93 NE7       29.88S FOG
MINOT AFB      CLOUDY    54  54 100 NE8       29.88S FOG
BISMARCK       MOCLDY    55  51  86 NE3       29.84S
DICKINSON      MOCLDY    47  44  90 W3        29.84F
GARRISON         N/A     57  54  89 NE7       29.85F
HETTINGER ARPT MOCLDY    41  38  89 W3        29.87S
JAMESTOWN      CLOUDY    59  56  89 E6        29.80F
BEACH          FAIR      48  48 100 SE5       29.88F
CARRINGTON     CLOUDY    59  57  94 N8        29.86R FOG
HAZEN          CLOUDY    57  55  94 E6        29.87S FOG
LINTON           N/A     50  50 100 CALM        N/A
MANDAN         CLOUDY    54  50  87 NE6       29.85S
OAKES            N/A    N/A N/A N/A MISG        N/A
RUGBY          CLOUDY    54  54 100 NE8       29.88S
STANLEY        CLOUDY    52  52 100 E9        29.91S FOG
WATFORD CITY   CLOUDY    55  55 100 E12       29.87S
$$

CITY           SKY/WX    TMP DP  RH WIND       PRES   REMARKS
GRAND FORKS    CLOUDY    63  58  83 SE5       29.81S
GRAND FORKS AF CLOUDY    61  61 100 N3        29.82S
DEVILS LAKE    CLOUDY    57  56  96 N9        29.85F FOG
FARGO          PTCLDY    58  56  93 CALM      29.80R
CAVALIER       CLOUDY    57  57 100 N8        29.84S
GRAFTON        CLOUDY    61  61 100 N5        29.85R
GWINNER        CLOUDY    59  59 100 N6        29.81R
LANGDON        FOG       55  55 100 N10       29.86S VSB 1/2
ROLLA          CLOUDY    50  50 100 N10       29.90S
WALHALLA       FAIR      57  57 100 N10       29.85S
$$

CITY           SKY/WX    TMP DP  RH WIND       PRES   REMARKS
ABERDEEN       CLOUDY    60  57  89 N7        29.79S
MOBRIDGE       CLOUDY    57  52  83 N5        29.79F
BUFFALO          N/A     51  44  77 S3        29.80S
RAPID CITY     CLEAR     44  42  93 NW7       29.86S
GLASGOW        MOCLDY    54  49  83 E10       29.83S
SIDNEY         MOCLDY    54  52  94 NE8       29.86S
WOLF POINT     CLEAR     50  48  93 E6        29.85F
GLENDIVE       CLEAR     52  46  82 NE7       29.87S
MILES CITY     PTCLDY    51  47  86 W6        29.84R
BAKER          CLOUDY    46  42  86 VRB5      29.86S
$$

CITY           SKY/WX    TMP DP  RH WIND       PRES   REMARKS
BILLINGS       CLOUDY    51  47  86 W6        29.92S
GREAT FALLS    LGT RAIN  47  40  76 W7        29.95R
REGINA         MOCLDY    52  48  87 E15       29.92S
ESTEVAN        LGT RAIN  52  52 100 E10       29.91R FOG
$$





USA.gov is the U.S. government's official web portal to all federal, state and local government web resources and services.